Voltar ao catálogo

ONEWEB-0655

AtivoComunicaçõesPO
NORAD 54677·PAYLOAD·🇬🇧 United Kingdom

Lançado Dec 8, 2022 de Cape Canaveral Space Force Station

Loading…

Próximas Passagens (próximas 24 horas)

TLE

AtualizadoSource: CelesTrak SupGP

Época: Sep 14, 2026, 20:33 UTC

1 54677C 22166AM  26257.85674028  .00002065  00000+0  50053-2 0  2572
2 54677  87.9270 226.1371 0002336  81.6320 302.6613 13.21823618    17

Acompanhe ONEWEB-0655 em tempo real com AllMySat

Download on the App Store